Location: Coopersdale
(40.3556°N, 78.9372°W)
Time: 18:43:18
(UTC+00:00)

Transit 4A - Pass Details

Date: 27 January 2021
Orbit: 866 x 978 km, 66.8° (Epoch: 25 February)

Event Time Altitude Azimuth Distance (km) Brightness Sun altitude
Rises 23:14:29 0° 205° (SSW) 3,654 11.7 -9.1°
Reaches altitude 10° 23:17:02 10° 205° (SSW) 2,716 10.9 -9.5°
Maximum altitude 23:23:25 84° 117° (ESE) 987 8.0 -10.7°
Drops below altitude 10° 23:29:49 10° 31° (NNE) 2,720 9.9 -11.9°
Enters shadow 23:31:26 - 30° (NNE) 3,315 10.4 -12.2°
Sets 23:32:22 0° 30° (NNE) 3,661 - -12.4°
